Home   Weather   Maraimalai Nagar   Past weeks

Flag for India Past Weather in Maraimalai Nagar, Tamil Nadu, India — Yesterday and Last 2 Weeks

88 °F

Scattered clouds.

Feels Like: 89 °F
Forecast: 75 / 93 °F
Wind: 12 mph from East

Location: Madras / Minambakkam

Current Time: Oct 22, 2016 at 5:20:18 PM

Latest Report: Oct 22, 2016 at 4:30 PM

Visibility: 3 mi

Pressure: 29.71 "Hg

Humidity: 46%

Dew Point: 64 °F

Location of Maraimalai NagarLocation

Past Weather in Maraimalai Nagar — Graph


Maraimalai Nagar Temperature Yesterday

Maximum temperature yesterday: 93 °F (at 12:00 PM)
Minimum temperature yesterday: 75 °F (at 5:00 AM)
Average temperature yesterday: 84 °F

High & Low Weather Summary for the Past Weeks

High99 °F (Oct 8, 2:00 PM)94% (Oct 14, 5:30 AM)29.86 "Hg (Oct 14, 5:30 AM)
Low75 °F (Oct 17, 5:30 AM)32% (Oct 18, 12:30 PM)29.62 "Hg (Oct 7, 3:30 PM)
Average85 °F69%29.73 "Hg
* Reported Oct 7 3:30 PM — Oct 22 4:00 PM, Maraimalai Nagar, Weather by CustomWeather, © 2016

Note: Actual official high and low records may vary slightly from our data, if they occured in-between our weather recording intervals... More about our weather records


Maraimalai Nagar Weather History for the Previous 24 Hours

Scroll right to see more
Time TempWeatherWind HumidityBarometerVisibility
4:00 PM
Sat, Oct 22
88 °FScattered clouds.9 mph43%29.71 "Hg3 mi
3:30 PM90 °FScattered clouds.9 mph41%29.71 "Hg3 mi
3:00 PM90 °FScattered clouds.9 mph38%29.71 "Hg3 mi
2:30 PM93 °FScattered clouds.5 mph41%29.71 "Hg3 mi
2:00 PM91 °FScattered clouds.8 mph41%29.71 "Hg3 mi
1:30 PM93 °FScattered clouds.7 mph39%29.74 "Hg3 mi
1:00 PM93 °FScattered clouds.2 mph39%29.74 "Hg3 mi
12:30 PM93 °FScattered clouds.2 mph39%29.74 "Hg3 mi
12:00 PM93 °FScattered clouds.5 mph41%29.77 "Hg3 mi
11:30 AM93 °FScattered clouds.5 mph41%29.77 "Hg3 mi
11:00 AM93 °FScattered clouds.3 mph39%29.80 "Hg2 mi
10:30 AM91 °FScattered clouds.No wind46%29.80 "Hg2 mi
10:00 AM90 °FScattered clouds.3 mph49%29.83 "Hg2 mi
9:30 AM90 °FScattered clouds.3 mph52%29.83 "Hg2 mi
9:00 AM88 °FScattered clouds.5 mph59%29.83 "Hg2 mi
8:30 AM86 °FScattered clouds.5 mph62%29.80 "Hg2 mi
8:00 AM82 °FFog.3 mph74%29.80 "Hg2 mi
7:30 AM81 °FFog.3 mph74%29.80 "Hg2 mi
7:00 AM79 °FFog.3 mph79%29.80 "Hg2 mi
6:30 AM79 °FFog.No wind79%29.77 "Hg2 mi
5:30 AM79 °FFog.3 mph79%29.74 "Hg2 mi
5:00 AM79 °FFog.3 mph79%29.74 "Hg2 mi
4:30 AM79 °FFog.No wind79%29.74 "Hg2 mi
4:00 AM79 °FFog.3 mph79%29.74 "Hg2 mi
3:30 AM79 °FFog.3 mph79%29.74 "Hg2 mi
3:00 AM79 °FFog.No wind79%29.74 "Hg2 mi
2:30 AM79 °FFog.No wind79%29.74 "Hg2 mi
2:00 AM79 °FFog.No wind79%29.74 "Hg2 mi
1:30 AM79 °FFog.No wind79%29.74 "Hg2 mi
1:00 AM79 °FFog.No wind74%29.74 "Hg2 mi
12:30 AM79 °FFog.No wind79%29.74 "Hg2 mi
12:00 AM81 °FPassing clouds.No wind74%29.77 "Hg3 mi
11:30 PM
Fri, Oct 21
81 °FPassing clouds.No wind70%29.77 "Hg3 mi
11:00 PM81 °FPassing clouds.No wind70%29.77 "Hg3 mi
10:30 PM81 °FPassing clouds.No wind70%29.77 "Hg3 mi
10:00 PM84 °FPartly cloudy.No wind55%29.77 "Hg3 mi
9:30 PM82 °FPartly cloudy.No wind58%29.77 "Hg3 mi
9:00 PM82 °FPartly cloudy.No wind58%29.77 "Hg3 mi
8:30 PM82 °FPartly cloudy.No wind58%29.77 "Hg3 mi
8:00 PM84 °FPartly cloudy.3 mph55%29.74 "Hg3 mi
7:30 PM84 °FPartly cloudy.6 mph51%29.74 "Hg3 mi
6:30 PM84 °FPartly cloudy.6 mph51%29.71 "Hg3 mi
6:00 PM84 °FBroken clouds.7 mph51%29.71 "Hg3 mi
5:30 PM86 °FScattered clouds.8 mph49%29.68 "Hg3 mi
5:00 PM88 °FHaze.8 mph46%29.68 "Hg3 mi
Weather by CustomWeather, © 2016

See weather overviewHow to use our weather pages